Regional Weather Roundup
Issued by NWS Albany, NY

Home | Current Version | Previous Version | Text Only | Print | Product List | Glossary On
Versions: 1 2 3 4 5 6 7 8 9 10 11 12 13 14 15 16 17 18 19 20 21 22 23 24 25 26 27 28 29 30 31 32 33 34 35 36 37 38 39 40 41 42 43 44 45 46 47 48 49 50
882
ASUS41 KALY 281410
RWRALY

NEW YORK STATE HOURLY WEATHER ROUNDUP
NATIONAL WEATHER SERVICE ALBANY NY
1000 AM EDT FRI APR 28 2017

NOTE: "FAIR" INDICATES FEW OR NO CLOUDS BELOW 12,000 FEET WITH NO
SIGNIFICANT WEATHER AND/OR NO OBSTRUCTIONS TO VISIBILITY.

NYZ032-033-038>043-046>054-057>066-NYZ062>081-082-084-281500-
EAST


CITY           SKY/WX    TMP DP  RH WIND       PRES   REMARKS
ALBANY         PTSUNNY   66  52  60 NW12      29.98R
GLENS FALLS    PTSUNNY   68  56  65 VRB3      29.95S
POUGHKEEPSIE   MOSUNNY   66  60  81 VRB3      29.96R
NEWBURGH       MOSUNNY   66  63  88 W7        29.98S
MONTGOMERY     SUNNY     70  62  76 S6        29.96R
WHITE PLAINS   PTSUNNY   62  60  93 CALM      29.98R FOG
ISLIP          PTSUNNY   64  60  87 CALM      29.98S
NEW YORK CITY  PTSUNNY   66  60  81 VRB5      29.98R HAZE
CENTRAL PARK   MOSUNNY   66  61  84 W5        30.01R HAZE
$$

NYZ005>009-017-018-044>046-055-056-281500-
CENTRAL


CITY           SKY/WX    TMP DP  RH WIND       PRES   REMARKS
FULTON         SUNNY     60  45  57 SW7       30.02R
SYRACUSE       PTSUNNY   60  46  59 W14       30.02R
ROME           MOSUNNY   60  46  59 W9        30.03R
ELMIRA         MOSUNNY   63  45  51 SW13      30.01S
BINGHAMTON     PTSUNNY   60  51  72 NW7       30.02S
MONTICELLO     MOSUNNY   66  59  77 W7        30.01R
$$

NYZ026>034-041>043-087-281500-
NORTH


CITY           SKY/WX    TMP DP  RH WIND       PRES   REMARKS
WATERTOWN        N/A    N/A N/A N/A MISG      30.02R
FORT DRUM      NOT AVBL
OGDENSBURG     PTSUNNY   59  48  66 SW12G18   29.98R
MASSENA        CLOUDY    60  50  69 SW9G18    29.96R
SARANAC LAKE   PTSUNNY   56  49  77 SW14G22   29.97R
PLATTSBURGH    MOSUNNY   69  49  48 VRB6G20   29.92R
$$

NYZ001>004-010>016-019>021-085-281500-
WEST


CITY           SKY/WX    TMP DP  RH WIND       PRES   REMARKS
NIAGARA FALLS  CLOUDY    55  42  61 SW15      30.01S
BUFFALO        PTSUNNY   54  41  61 SW14      30.02S
DUNKIRK        MOSUNNY   54  44  69 W8        30.04R
JAMESTOWN      MOSUNNY   52  43  71 SW13      30.04R
WELLSVILLE     SUNNY     55  42  61 S9        30.05F
ROCHESTER      PTSUNNY   57  43  59 SW16G25   30.03S
PENN YAN       SUNNY     61  42  49 W12       30.02F
$$

             KEY
       WCI = WIND CHILL INDEX
       VSB = VISIBILITY
       HX  = HEAT INDEX
$$




USA.gov is the U.S. government's official web portal to all federal, state and local government web resources and services.